Location: ČR
(50.0000°N, 15.0000°E)
Time: 18:54:24
(UTC+00:00)

O/OREOS (USA 219) - Pass Details

Date: 15 December 2021
Orbit: 621 x 646 km, 72.0° (Epoch: 22 May)

Event Time Altitude Azimuth Distance (km) Brightness Sun altitude
Rises 16:11:34 0° 338° (NNW) 2,960 ? -11.0°
Reaches altitude 10° 16:14:08 10° 350° (N) 2,049 ? -11.4°
Maximum altitude 16:18:08 28° 50° (NE) 1,203 ? -12.0°
Drops below altitude 10° 16:22:07 10° 110° (ESE) 2,045 ? -12.6°
Enters shadow 16:22:13 10° 111° (ESE) 2,078 ? -12.6°
